Regional Weather Roundup
Issued by NWS Midland/Odessa, TX

Skip options and go directly to product.
Home | Oldest Version | Previous Version | Current Version | All | Graphics & Text | Save Text | Print | Product List | Glossary On

Skip product version selection by date and time.   
971
ASUS44 KMAF 231910
RWRMAF
MIDLAND AREA WEATHER ROUNDUP
NATIONAL WEATHER SERVICE MIDLAND TX
200 PM CDT THU OCT 23 2014

...IN SOUTHWEST TEXAS AND SOUTHEAST NEW MEXICO...

CITY           SKY/WX    TMP DP  RH WIND       PRES   REMARKS
ALPINE         MOSUNNY   76  51  41 NW5       30.27F
ANDREWS        FAIR      70  61  73 CALM      30.16F
ARTESIA        NOT AVBL
BIG SPRING     MOSUNNY   71  63  76 W3        30.17F
CARLSBAD       MOSUNNY   65  59  81 VRB5      30.14F
DRYDEN           N/A     72  61  68 VRB3      30.13F
FORT STOCKTON  SUNNY     79  58  48 N5        30.15F
GUAD PASS      SUNNY     72  54  53 W12       30.26F
HOBBS          SUNNY     72  59  64 S6        30.17F
MARFA          MOSUNNY   73  52  46 W7        30.26F
MIDLAND AIRPK  SUNNY     76  61  61 CALM      30.14F
MIDLAND INTL   SUNNY     78  59  51 VRB5      30.14F
ODESSA         SUNNY     75  59  57 VRB5      30.15F
PECOS          SUNNY     71  61  70 CALM      30.14F
PRESIDIO       FAIR      76  60  56 NW3       30.15F
SEMINOLE       SUNNY     68  62  78 CALM      30.16F
SNYDER         CLOUDY    65  60  84 SW6       30.16F
WINK           SUNNY     74  32  21 CALM      30.13F
$$
...OTHER STATIONS IN TEXAS...

CITY           SKY/WX    TMP DP  RH WIND       PRES   REMARKS
ABILENE        MOSUNNY   81  59  47 S13       30.11F
AMARILLO       SUNNY     74  58  57 S8        30.11F
AUSTIN         MOSUNNY   80  59  48 SW5       30.10F
BROWNSVILLE    MOSUNNY   86  67  52 N8        30.04F
CORPUS CHRISTI PTSUNNY   81  64  56 NE6       30.08F
DALLAS FTW     MOSUNNY   75  56  51 S8        30.11F
DEL RIO        CLOUDY    75  66  73 SE14      30.11F
EL PASO        MOSUNNY   75  52  44 CALM      30.18F
HOUSTON INT    MOSUNNY   79  55  43 N8        30.10F
LUBBOCK        MOSUNNY   66  58  75 VRB6      30.13F
SAN ANGELO     CLOUDY    75  62  64 SW13G22   30.13F
SAN ANTONIO    MOSUNNY   82  59  45 CALM      30.11F
WACO           SUNNY     78  57  48 VRB3      30.11F
WICHITA FALLS  NOT AVBL
$$
...OTHER LOCATIONS IN NEW MEXICO...

CITY           SKY/WX    TMP DP  RH WIND       PRES   REMARKS
ALAMAGORDO     NOT AVBL
ALBUQUERQUE    MOSUNNY   67  41  38 CALM      30.27F
CANNON AFB     SUNNY     79  42  27 W16       30.13F
CLOVIS         SUNNY     77  45  31 W3        30.15F
HOLLOMAN AFB   MOSUNNY   76  51  40 S3        30.18F
ROSWELL        SUNNY     71  57  61 S8        30.14F
RUIDOSO        SUNNY     66  43  42 W7        30.34
SANTA FE       SUNNY     68  32  26 N9        30.29F
TRUTH OR CONSE SUNNY     73  42  32 CALM      30.23F
TUCUMCARI      SUNNY     77  41  27 W5        30.11F
$$

USA.gov is the U.S. government's official web portal to all federal, state and local government web resources and services.